TimePDT,TemperatureF,Dew PointF,Humidity,Sea Level PressureIn,VisibilityMPH,Wind Direction,Wind SpeedMPH,Gust SpeedMPH,PrecipitationIn,Events,Conditions,WindDirDegrees,DateUTC
12:53 AM,53.1,19.0,26,30.01,10.0,West,13.8,-,N/A,,Clear,280,2014-03-14 07:53:00
1:53 AM,54.0,21.9,29,30.01,10.0,WNW,15.0,-,N/A,,Clear,290,2014-03-14 08:53:00
2:53 AM,54.0,19.9,26,30.00,10.0,WNW,15.0,-,N/A,,Clear,290,2014-03-14 09:53:00
3:53 AM,53.1,21.0,29,30.00,10.0,WNW,13.8,-,N/A,,Clear,290,2014-03-14 10:53:00
4:53 AM,52.0,23.0,32,30.01,10.0,SW,5.8,-,N/A,,Clear,230,2014-03-14 11:53:00
5:53 AM,46.0,24.1,42,30.04,10.0,SW,3.5,-,N/A,,Clear,230,2014-03-14 12:53:00
6:53 AM,42.1,25.0,51,30.06,10.0,South,8.1,-,N/A,,Clear,190,2014-03-14 13:53:00
7:53 AM,45.0,26.1,48,30.09,10.0,South,10.4,-,N/A,,Clear,180,2014-03-14 14:53:00
8:53 AM,55.0,30.0,38,30.10,10.0,South,4.6,-,N/A,,Clear,190,2014-03-14 15:53:00
9:53 AM,64.0,21.9,20,30.10,10.0,WNW,9.2,-,N/A,,Clear,300,2014-03-14 16:53:00
10:53 AM,66.9,19.9,17,30.10,10.0,NW,5.8,-,N/A,,Clear,310,2014-03-14 17:53:00
11:53 AM,71.1,21.0,15,30.09,10.0,NW,8.1,-,N/A,,Clear,320,2014-03-14 18:53:00
12:53 PM,72.0,15.1,11,30.07,10.0,West,5.8,-,N/A,,Clear,270,2014-03-14 19:53:00
1:53 PM,75.0,12.9,9,30.04,10.0,NW,5.8,-,N/A,,Clear,320,2014-03-14 20:53:00
2:53 PM,75.0,10.0,8,30.02,10.0,NW,9.2,-,N/A,,Clear,310,2014-03-14 21:53:00
3:53 PM,75.0,10.9,9,30.03,10.0,WNW,12.7,20.7,N/A,,Clear,290,2014-03-14 22:53:00
4:53 PM,73.9,10.0,9,30.02,10.0,NW,18.4,-,N/A,,Clear,310,2014-03-14 23:53:00
5:53 PM,70.0,8.1,9,30.04,10.0,WNW,18.4,-,N/A,,Clear,300,2014-03-15 00:53:00
6:53 PM,66.9,1.9,8,30.06,10.0,WNW,16.1,-,N/A,,Clear,290,2014-03-15 01:53:00
7:53 PM,64.0,3.9,9,30.09,10.0,WNW,17.3,-,N/A,,Clear,290,2014-03-15 02:53:00
8:53 PM,61.0,19.9,21,30.10,10.0,WNW,24.2,-,N/A,,Clear,290,2014-03-15 03:53:00
9:53 PM,60.1,23.0,24,30.12,10.0,WNW,19.6,-,N/A,,Clear,290,2014-03-15 04:53:00
10:53 PM,60.1,18.0,20,30.13,10.0,West,17.3,-,N/A,,Clear,270,2014-03-15 05:53:00
11:53 PM,55.0,18.0,23,30.13,10.0,West,5.8,-,N/A,,Clear,270,2014-03-15 06:53:00